Regional Weather Roundup
Issued by NWS Northern Indiana

Home | Current Version | Previous Version | Graphics & Text | Print | Product List | Glossary On
Versions: 1 2 3 4 5 6 7 8 9 10 11 12 13 14 15 16 17 18 19 20 21 22 23 24 25 26 27 28 29 30 31 32 33 34 35 36 37 38 39 40 41 42 43 44 45 46 47 48 49 50
000
ASUS43 KIWX 290400
RWRIWX

KIWX WEATHER ROUNDUP
NATIONAL WEATHER SERVICE NORTHERN INDIANA
1200 AM EDT FRI MAY 29 2015

NOTE: "FAIR" INDICATES FEW OR NO CLOUDS BELOW 12,000 FEET WITH NO
SIGNIFICANT WEATHER AND/OR OBSTRUCTIONS TO VISIBILITY.

* THESE STATIONS ARE NOT UNDER NWS QUALITY CONTROL. THEY ALSO MAY NOT
  REPORT WEATHER SUCH AS PRECIPITATION OR FOG.

INZ001>027-290500-
NORTHERN INDIANA

CITY           SKY/WX    TMP DP  RH WIND       PRES   REMARKS
SOUTH BEND     PTCLDY    72  57  59 SE12      30.12F
GOSHEN         CLEAR     69  56  62 SE12      30.13F
ANGOLA*        CLEAR     68  55  64 E9        30.18R
FORT WAYNE     MOCLDY    67  61  81 E8        30.15F

$$
INZ028>050-290500-
CENTRAL INDIANA

CITY           SKY/WX    TMP DP  RH WIND       PRES   REMARKS
LAFAYETTE      PTCLDY    71  62  73 S5        30.09F
KOKOMO*        PTCLDY    72  63  73 S7        30.12F
MUNCIE*        CLEAR     73  62  68 S5        30.15S
INDIANAPOLIS   PTCLDY    72  62  71 SE8       30.12F

$$
MIZ043>046-050>051-056>058-064>065-071>073-077>080-290500-
SOUTHWEST LOWER MICHIGAN

CITY           SKY/WX    TMP DP  RH WIND       PRES   REMARKS
BATTLE CREEK   CLEAR     69  54  58 SE9       30.16F
BENTON HARBOR  PTCLDY    67  55  65 E8        30.10F
HOLLAND        CLEAR     68  55  63 SE8       30.12F
GRAND RAPIDS   CLEAR     67  57  70 SE9       30.14F
KALAMAZOO      CLEAR     68  55  63 VRB5      30.15F

$$
OHZ001>008-015>018-024>025-290500-
NORTHWEST OHIO

CITY           SKY/WX    TMP DP  RH WIND       PRES   REMARKS
DEFIANCE       FAIR      67  57  70 E10       30.17F
FINDLAY        PTCLDY    68  57  68 E8        30.17F
TOLEDO EXPRESS PTCLDY    64  54  69 E7        30.18F
TOLEDO METCALF CLEAR     63  54  72 E8        30.20F
LIMA           PTCLDY    71  60  68 SE9       30.17F

$$
AND FOR LAKE MICHIGAN COASTAL AND OPEN LAKE BUOY OBSERVATIONS

STATION/POSITION TEMP    WIND        PRES    VSBY  WAVE
                 AIR SEA DIR/SP/G                  HT/PER
                 (F)     (DEG/KT/KT) (MB)    (MI)  (FT/S)
CALUMET HARBOR    61      80/  5/  7   N/A
MICHIGAN CITY     73      90/  8/  9   N/A
BURNS HARBOR      75     110/ 10/ 15 1019.0S
SAINT JOSEPH      71      CALM  /  2 1020.3S
SOUTH LAKE BUOY   47 38  100/  8/ 10 1019.9F         0
4 MI NW BRIDGMAN  69 58  160/ 10/ 12   N/A           1
MICHIGAN CITY     65 56  130/  8/ 10   N/A           1

$$
&&



USA.gov is the U.S. government's official web portal to all federal, state and local government web resources and services.